| time (UTC) | temp F | wind direction | speed MPH | gust MPH | rain 1hr in | rain 24hr in | rain mn in | humidity % | barometer mb |
| 20260503040029 | 36 | 326 | 0.0 | 0.0 | 0.00 | 0.00 | 0.00 | 91 | 1016.6 |
| 20260503034518 | 37 | 326 | 0.0 | 0.0 | 0.00 | 0.00 | 0.31 | 90 | 1016.6 |
| 20260503033023 | 37 | 326 | 0.0 | 0.0 | 0.00 | 0.00 | 0.31 | 90 | 1016.7 |
| 20260503031503 | 37 | 326 | 0.0 | 0.0 | 0.00 | 0.00 | 0.31 | 89 | 1016.8 |
| 20260503030055 | 37 | 326 | 0.0 | 0.0 | 0.00 | 0.00 | 0.31 | 89 | 1016.8 |
| 20260503024521 | 37 | 326 | 0.0 | 0.0 | 0.00 | 0.00 | 0.31 | 89 | 1017.0 |
| 20260503023012 | 37 | 326 | 0.0 | 0.0 | 0.00 | 0.00 | 0.31 | 88 | 1017.0 |
| 20260503021600 | 38 | 326 | 0.0 | 0.0 | 0.00 | 0.00 | 0.31 | 87 | 1017.0 |
| 20260503020051 | 38 | 326 | 0.0 | 0.0 | 0.00 | 0.00 | 0.31 | 86 | 1016.9 |
| 20260503014606 | 39 | 326 | 0.0 | 0.0 | 0.00 | 0.00 | 0.31 | 85 | 1016.8 |
| 20260503013035 | 40 | 326 | 0.0 | 0.0 | 0.00 | 0.00 | 0.31 | 84 | 1016.7 |
| 20260503011522 | 40 | 326 | 0.0 | 0.0 | 0.00 | 0.00 | 0.31 | 83 | 1016.6 |
| 20260503010008 | 41 | 326 | 0.0 | 0.0 | 0.00 | 0.00 | 0.31 | 83 | 1016.6 |
| 20260503004605 | 41 | 326 | 0.0 | 0.0 | 0.00 | 0.00 | 0.31 | 81 | 1016.6 |
| 20260503004503 | 41 | 326 | 0.0 | 0.0 | 0.00 | 0.00 | 0.31 | 80 | 1016.6 |
| 20260503003049 | 42 | 326 | 0.0 | 0.0 | 0.00 | 0.00 | 0.31 | 80 | 1016.5 |
| 20260503001541 | 42 | 326 | 0.0 | 0.0 | 0.00 | 0.00 | 0.31 | 78 | 1016.5 |
| 20260503000035 | 42 | 326 | 0.0 | 0.0 | 0.00 | 0.00 | 0.31 | 77 | 1016.5 |
| 20260502234526 | 43 | 326 | 0.0 | 0.0 | 0.00 | 0.00 | 0.31 | 75 | 1016.5 |
| 20260502233014 | 43 | 326 | 0.0 | 0.0 | 0.00 | 0.00 | 0.31 | 75 | 1016.3 |
| 20260502231509 | 43 | 326 | 0.0 | 0.0 | 0.00 | 0.00 | 0.31 | 74 | 1016.3 |
| 20260502230015 | 43 | 326 | 0.0 | 0.0 | 0.00 | 0.00 | 0.31 | 72 | 1016.4 |
| 20260502224612 | 43 | 330 | 0.0 | 0.0 | 0.00 | 0.00 | 0.31 | 71 | 1016.5 |
| 20260502224501 | 43 | 330 | 0.0 | 0.0 | 0.00 | 0.00 | 0.31 | 71 | 1016.5 |
| 20260502223057 | 43 | 330 | 0.0 | 0.0 | 0.00 | 0.00 | 0.31 | 69 | 1016.5 |
| 20260502223002 | 43 | 331 | 0.0 | 0.0 | 0.00 | 0.00 | 0.31 | 69 | 1016.5 |
| 20260502221555 | 43 | 16 | 0.0 | 0.0 | 0.00 | 0.00 | 0.31 | 70 | 1016.4 |
| 20260502220042 | 43 | 17 | 0.0 | 0.0 | 0.00 | 0.00 | 0.31 | 70 | 1016.5 |
| 20260502214531 | 43 | 17 | 1.0 | 0.0 | 0.00 | 0.00 | 0.31 | 70 | 1016.4 |
| 20260502213022 | 43 | 323 | 1.0 | 0.0 | 0.00 | 0.00 | 0.31 | 70 | 1016.4 |
| 20260502211532 | 43 | 43 | 2.0 | 0.0 | 0.00 | 0.00 | 0.31 | 69 | 1016.3 |
| 20260502210016 | 44 | 269 | 1.0 | 0.0 | 0.00 | 0.00 | 0.31 | 70 | 1016.2 |
| 20260502204556 | 43 | 69 | 3.0 | 0.0 | 0.00 | 0.00 | 0.31 | 69 | 1016.2 |
| 20260502203057 | 43 | 57 | 3.0 | 0.0 | 0.00 | 0.00 | 0.31 | 67 | 1016.3 |
| 20260502201534 | 43 | 30 | 3.0 | 0.0 | 0.00 | 0.00 | 0.31 | 68 | 1016.3 |
| 20260502200024 | 44 | 355 | 3.0 | 0.0 | 0.00 | 0.00 | 0.31 | 65 | 1016.4 |
| 20260502194508 | 44 | 350 | 4.0 | 0.0 | 0.00 | 0.00 | 0.31 | 68 | 1016.4 |
| 20260502193100 | 44 | 47 | 4.0 | 0.0 | 0.00 | 0.00 | 0.31 | 71 | 1016.4 |
| 20260502193002 | 44 | 59 | 4.0 | 0.0 | 0.00 | 0.00 | 0.31 | 71 | 1016.4 |
| 20260502191549 | 45 | 44 | 2.0 | 0.0 | 0.00 | 0.00 | 0.31 | 68 | 1016.4 |
| 20260502190041 | 45 | 261 | 3.0 | 0.0 | 0.00 | 0.00 | 0.31 | 69 | 1016.5 |
| 20260502184546 | 44 | 295 | 4.0 | 0.0 | 0.00 | 0.00 | 0.31 | 71 | 1016.5 |
| 20260502183034 | 45 | 252 | 3.0 | 0.0 | 0.00 | 0.00 | 0.31 | 72 | 1016.6 |
| 20260502181516 | 44 | 327 | 2.0 | 0.0 | 0.00 | 0.00 | 0.31 | 72 | 1016.6 |
| 20260502163055 | 43 | 232 | 3.0 | 0.0 | 0.00 | 0.00 | 0.31 | 73 | 1016.7 |
| 20260502161542 | 43 | 225 | 3.0 | 0.0 | 0.00 | 0.00 | 0.31 | 76 | 1016.7 |
| 20260502151518 | 41 | 323 | 2.0 | 0.0 | 0.00 | 0.00 | 0.31 | 81 | 1016.7 |
| 20260502123037 | 34 | 355 | 2.0 | 0.0 | 0.00 | 0.00 | 0.23 | 95 | 1016.3 |
| 20260502121528 | 34 | 313 | 2.0 | 0.0 | 0.00 | 0.00 | 0.21 | 95 | 1016.1 |
| 20260502114606 | 33 | 277 | 1.0 | 0.0 | 0.00 | 0.00 | 0.17 | 95 | 1016.1 |
| 20260502113049 | 33 | 242 | 0.0 | 0.0 | 0.00 | 0.00 | 0.16 | 96 | 1016.4 |
| 20260502111531 | 32 | 242 | 0.0 | 0.0 | 0.00 | 0.00 | 0.14 | 96 | 1016.2 |
| 20260502110025 | 32 | 242 | 0.0 | 0.0 | 0.00 | 0.00 | 0.14 | 95 | 1016.1 |
| 20260502104523 | 32 | 242 | 0.0 | 0.0 | 0.00 | 0.00 | 0.13 | 95 | 1015.8 |
| 20260502103014 | 32 | 242 | 0.0 | 0.0 | 0.00 | 0.00 | 0.12 | 95 | 1015.8 |
| 20260502101622 | 32 | 242 | 0.0 | 0.0 | 0.00 | 0.00 | 0.11 | 95 | 1015.7 |
| 20260502101512 | 32 | 242 | 0.0 | 0.0 | 0.00 | 0.00 | 0.11 | 95 | 1015.8 |
| 20260502091527 | 33 | 242 | 0.0 | 0.0 | 0.00 | 0.00 | 0.07 | 95 | 1015.6 |
| 20260502071513 | 35 | 242 | 0.0 | 0.0 | 0.00 | 0.00 | 0.00 | 94 | 1015.5 |
| 20260502070132 | 35 | 242 | 0.0 | 0.0 | 0.00 | 0.00 | 0.00 | 94 | 1015.6 |
| 20260502070005 | 35 | 242 | 0.0 | 0.0 | 0.00 | 0.00 | 0.00 | 94 | 1015.6 |
| 20260502064555 | 36 | 242 | 0.0 | 0.0 | 0.00 | 0.00 | 0.00 | 94 | 1015.8 |
| 20260502063040 | 36 | 242 | 0.0 | 0.0 | 0.00 | 0.00 | 0.00 | 94 | 1015.8 |
| 20260502061528 | 37 | 242 | 1.0 | 0.0 | 0.00 | 0.00 | 0.00 | 94 | 1015.7 |
| 20260502060016 | 37 | 242 | 1.0 | 0.0 | 0.00 | 0.00 | 0.00 | 95 | 1015.7 |
| 20260502054506 | 37 | 210 | 1.0 | 0.0 | 0.00 | 0.00 | 0.00 | 95 | 1015.9 |
| 20260502053054 | 37 | 207 | 0.0 | 0.0 | 0.00 | 0.00 | 0.00 | 94 | 1015.7 |
| 20260502051600 | 37 | 113 | 0.0 | 0.0 | 0.00 | 0.00 | 0.00 | 94 | 1015.7 |
| 20260502050030 | 38 | 113 | 0.0 | 0.0 | 0.00 | 0.00 | 0.00 | 94 | 1015.7 |
| 20260502044519 | 38 | 113 | 0.0 | 0.0 | 0.00 | 0.00 | 0.00 | 94 | 1015.6 |
| 20260502043008 | 38 | 113 | 0.0 | 0.0 | 0.00 | 0.00 | 0.00 | 94 | 1015.6 |
| 20260502041551 | 39 | 113 | 0.0 | 0.0 | 0.00 | 0.00 | 0.00 | 94 | 1015.6 |